Location: Newark
(33.6439°N, 114.9881°W)
Time: 05:02:40
(UTC+00:00)

Transit 2A Rocket - Pass Details

Date: 27 August 2019
Orbit: 592 x 911 km, 66.7° (Epoch: 16 September)

Event Time Altitude Azimuth Distance (km) Brightness Sun altitude
Rises 02:47:05 0° 249° (WSW) 3,448 9.3 -7.6°
Reaches altitude 10° 02:50:35 10° 269° (W) 2,462 9.0 -8.3°
Maximum altitude 02:54:06 17° 308° (NW) 1,980 8.3 -9.0°
Drops below altitude 10° 02:57:29 10° 347° (NNW) 2,341 8.0 -9.7°
Sets 03:00:43 0° 8° (N) 3,201 8.4 -10.3°
